CUAVA 2

Last updated on Mon Sep 16 2024 00:02:03 GMT+0000 (Coordinated Universal Time)

1 60527U 24149BM 24258.94187843 .00018422 00000+0 85899-3 0 9993 2 60527 97.4370 334.0878 0009747 46.4966 313.7078 15.19879893 4426
UTC large
Height (km)
Speed (km/s)
/
Latitude / Longitude
Inclination (degrees)
Orbital Period (minutes)
Azimuth
Elevation
Range (km)
Doppler Factor

Next 0 passes for location: London (51.5072 / 0.1276)

Sorry there are no passes over London.